| time (UTC) | temp F | wind direction | speed MPH | gust MPH | rain 1hr in | rain 24hr in | rain mn in | humidity % | barometer mb |
| 20260506104051 | 71 | 320 | 9.0 | 15.0 | 0.00 | 0.00 | 0.00 | 42 | 1004.9 |
| 20260506101052 | 69 | 12 | 6.0 | 12.0 | 0.00 | 0.00 | 0.00 | 45 | 1004.8 |
| 20260506094052 | 66 | 6 | 9.0 | 17.0 | 0.00 | 0.00 | 0.00 | 47 | 1004.6 |
| 20260506091052 | 66 | 352 | 12.0 | 14.0 | 0.00 | 0.00 | 0.00 | 50 | 1004.5 |
| 20260506084051 | 61 | 4 | 5.0 | 7.0 | 0.00 | 0.00 | 0.00 | 56 | 1004.2 |
| 20260506081051 | 67 | 12 | 8.0 | 11.0 | 0.00 | 0.00 | 0.00 | 53 | 1004.2 |
| 20260506071052 | 56 | 1 | 8.0 | 11.0 | 0.00 | 0.00 | 0.00 | 70 | 1003.8 |
| 20260506061051 | 50 | 0 | 8.0 | 10.0 | 0.00 | 0.00 | 0.00 | 82 | 1003.5 |
| 20260506051051 | 47 | 6 | 5.0 | 6.0 | 0.00 | 0.00 | 0.00 | 84 | 1003.2 |
| 20260506044050 | 47 | 12 | 6.0 | 8.0 | 0.00 | 0.00 | 0.00 | 84 | 1003.1 |
| 20260506041051 | 47 | 8 | 5.0 | 7.0 | 0.00 | 0.00 | 0.00 | 83 | 1003.0 |
| 20260506034051 | 47 | 9 | 7.0 | 8.0 | 0.00 | 0.00 | 0.00 | 82 | 1002.9 |
| 20260506033732 | 47 | 23 | 6.0 | 8.0 | 0.00 | 0.00 | 0.00 | 82 | 1002.9 |
| 20260506030731 | 47 | 7 | 7.0 | 9.0 | 0.00 | 0.00 | 0.00 | 83 | 1002.9 |
| 20260506030416 | 47 | 15 | 5.0 | 17.0 | 0.00 | 0.00 | 0.00 | 83 | 1002.9 |
| 20260506023415 | 47 | 4 | 6.0 | 9.0 | 0.00 | 0.00 | 0.00 | 82 | 1002.7 |
| 20260506020415 | 48 | 11 | 7.0 | 11.0 | 0.00 | 0.00 | 0.00 | 81 | 1002.8 |
| 20260506013414 | 48 | 4 | 5.0 | 11.0 | 0.00 | 0.00 | 0.00 | 81 | 1002.7 |
| 20260506010415 | 48 | 353 | 6.0 | 8.0 | 0.00 | 0.00 | 0.00 | 81 | 1002.8 |
| 20260506003415 | 49 | 10 | 6.0 | 11.0 | 0.00 | 0.00 | 0.00 | 79 | 1002.8 |
| 20260506000416 | 49 | 12 | 7.0 | 8.0 | 0.00 | 0.00 | 0.00 | 79 | 1002.8 |
| 20260505233415 | 50 | 17 | 7.0 | 10.0 | 0.00 | 0.00 | 0.00 | 78 | 1002.9 |
| 20260505230414 | 50 | 8 | 7.0 | 11.0 | 0.00 | 0.00 | 0.00 | 79 | 1003.0 |
| 20260505223415 | 50 | 9 | 8.0 | 8.0 | 0.00 | 0.00 | 0.00 | 80 | 1002.9 |
| 20260505220415 | 51 | 3 | 7.0 | 9.0 | 0.00 | 0.00 | 0.00 | 80 | 1002.9 |
| 20260505213416 | 51 | 11 | 5.0 | 7.0 | 0.00 | 0.00 | 0.00 | 81 | 1002.9 |
| 20260505210415 | 52 | 351 | 5.0 | 6.0 | 0.00 | 0.00 | 0.00 | 80 | 1002.9 |
| 20260505203414 | 52 | 10 | 5.0 | 5.0 | 0.00 | 0.00 | 0.00 | 79 | 1003.0 |
| 20260505200415 | 53 | 22 | 6.0 | 7.0 | 0.00 | 0.00 | 0.00 | 77 | 1002.6 |
| 20260505193416 | 53 | 14 | 7.0 | 9.0 | 0.00 | 0.00 | 0.00 | 77 | 1002.3 |
| 20260505190415 | 53 | 8 | 8.0 | 10.0 | 0.00 | 0.00 | 0.00 | 76 | 1002.1 |
| 20260505183415 | 54 | 352 | 8.0 | 11.0 | 0.00 | 0.00 | 0.00 | 76 | 1001.9 |
| 20260505180415 | 56 | 340 | 8.0 | 9.0 | 0.00 | 0.00 | 0.00 | 75 | 1001.9 |
| 20260505173413 | 57 | 338 | 5.0 | 9.0 | 0.00 | 0.00 | 0.00 | 74 | 1001.9 |
| 20260505170414 | 58 | 347 | 8.0 | 10.0 | 0.00 | 0.00 | 0.00 | 73 | 1002.0 |
| 20260505163415 | 58 | 354 | 10.0 | 10.0 | 0.00 | 0.00 | 0.00 | 74 | 1002.0 |
| 20260505160415 | 59 | 353 | 8.0 | 12.0 | 0.00 | 0.00 | 0.00 | 73 | 1002.1 |
| 20260505123734 | 59 | 347 | 8.0 | 11.0 | 0.00 | 0.00 | 0.00 | 73 | 1002.6 |
| 20260505120733 | 58 | 8 | 6.0 | 9.0 | 0.00 | 0.00 | 0.00 | 76 | 1002.9 |
| 20260505113734 | 55 | 12 | 8.0 | 10.0 | 0.00 | 0.00 | 0.00 | 79 | 1003.1 |
| 20260505110734 | 56 | 18 | 8.0 | 12.0 | 0.00 | 0.00 | 0.00 | 78 | 1003.2 |